Weather History for Plattsmouth, NE

Change the Weather History Date:

Wednesday, June 26, 2013

  Actual Average (KOFF) Record (KOFF)
Temperature  
Mean Temperature 82 °F -  
Max Temperature 90 °F 82 °F 95 °F (2002)
Min Temperature 73 °F 63 °F 53 °F (2003)
Cooling Degree Days 16    
Growing Degree Days 32 (Base 50)    
Moisture  
Dew Point 68 °F    
Average Humidity 65    
Maximum Humidity 95    
Minimum Humidity 36    
Precipitation  
Precipitation 0.00 in - - ()
Sea Level Pressure  
Sea Level Pressure 29.81 in    
Wind  
Wind Speed 7 mph (WNW)    
Max Wind Speed 17 mph    
Max Gust Speed 22 mph    
Visibility 10 miles    
Events      
Averages and records for this station are not official NWS values.
T = Trace of Precipitation, MM = Missing Value Source: NWS Daily Summary

Daily Weather History Graph

Daily Weather History Graph

Search for Another Location

Airport:

Trip Planner

Search our weather history database for the weather conditions in past years. The results will help you decide how hot, cold, wet, or windy it might be!

Date:

Astronomy

Jun. 26, 2013 Rise Set
Actual Time 5:53 AM CDT 8:59 PM CDT
Civil Twilight 5:19 AM CDT 9:33 PM CDT
Nautical Twilight 4:36 AM CDT 10:16 PM CDT
Astronomical Twilight 3:46 AM CDT 11:06 PM CDT
Moon 11:21 PM CDT (6/26) 9:48 AM CDT (6/26)
Length of Visible Light 16h 13m
Length of Day
15h 06m
Waning Gibbous, 85% of the Moon is Illuminated
Jun 26
Waning Gibbous
Jun 29
Last Quarter
Jul 8
New
Jul 15
First Quarter
Jul 22
Full

Hourly Weather History & Observations

Time (CDT) Temp. Heat Index Dew Point Humidity Pressure Visibility Wind Dir Wind Speed Gust Speed Precip Events Conditions
12:15 AM 77.2 °F - 72.9 °F 86% 29.69 in 10.0 mi SE 5.8 mph - N/A   Clear
12:35 AM 77.0 °F - 72.7 °F 86% 29.69 in 10.0 mi SE 8.1 mph - N/A   Clear
12:55 AM 77.4 °F - 72.5 °F 85% 29.69 in 10.0 mi Calm Calm - N/A   Clear
1:15 AM 76.3 °F - 72.3 °F 87% 29.69 in 10.0 mi SE 5.8 mph - N/A   Clear
1:35 AM 76.3 °F - 72.3 °F 87% 29.68 in 10.0 mi SSE 5.8 mph - N/A   Clear
1:55 AM 76.1 °F - 72.1 °F 87% 29.68 in 10.0 mi SSE 6.9 mph - N/A   Clear
2:15 AM 75.6 °F - 72.0 °F 89% 29.68 in 10.0 mi South 4.6 mph - N/A   Clear
2:35 AM 74.3 °F - 71.6 °F 91% 29.68 in 10.0 mi South 3.5 mph - N/A   Clear
2:55 AM 74.5 °F - 71.8 °F 91% 29.69 in 10.0 mi SSW 4.6 mph - N/A   Clear
3:15 AM 74.1 °F - 71.6 °F 92% 29.68 in 10.0 mi SW 3.5 mph - N/A   Clear
3:35 AM 74.8 °F - 72.0 °F 91% 29.69 in 10.0 mi WSW 6.9 mph - N/A   Clear
3:55 AM 74.3 °F - 72.0 °F 92% 29.69 in 10.0 mi West 4.6 mph - N/A   Clear
4:15 AM 73.8 °F - 72.1 °F 95% 29.70 in 7.0 mi WNW 6.9 mph - N/A   Clear
4:35 AM 75.2 °F - 73.4 °F 94% 29.71 in 10.0 mi WNW 9.2 mph - N/A   Clear
4:55 AM 75.6 °F - 73.6 °F 94% 29.71 in 10.0 mi WNW 4.6 mph - N/A   Clear
5:15 AM 75.7 °F - 73.6 °F 93% 29.73 in 10.0 mi WNW 6.9 mph - N/A   Clear
5:35 AM 75.4 °F - 73.4 °F 94% 29.74 in 10.0 mi WNW 4.6 mph - N/A   Clear
5:55 AM 75.6 °F - 73.4 °F 93% 29.74 in 7.0 mi WNW 4.6 mph - N/A   Clear
6:15 AM 75.4 °F - 73.4 °F 94% 29.75 in 7.0 mi WNW 6.9 mph - N/A   Clear
6:35 AM 75.4 °F - 73.2 °F 93% 29.76 in 7.0 mi WNW 8.1 mph - N/A   Clear
6:55 AM 75.7 °F - 72.9 °F 91% 29.77 in 7.0 mi WNW 8.1 mph - N/A   Clear
7:15 AM 76.1 °F - 72.5 °F 89% 29.77 in 10.0 mi NW 8.1 mph - N/A   Clear
7:35 AM 77.0 °F - 71.8 °F 84% 29.79 in 10.0 mi WNW 6.9 mph - N/A   Clear
7:55 AM 77.7 °F - 71.2 °F 80% 29.79 in 10.0 mi WNW 9.2 mph - N/A   Clear
8:15 AM 78.3 °F - 70.7 °F 77% 29.80 in 10.0 mi WNW 6.9 mph - N/A   Clear
8:35 AM 79.0 °F - 70.7 °F 76% 29.81 in 10.0 mi NW 11.5 mph - N/A   Clear
8:55 AM 79.7 °F - 70.2 °F 73% 29.81 in 10.0 mi NW 9.2 mph - N/A   Clear
9:15 AM 80.2 °F 83.5 °F 70.0 °F 71% 29.82 in 10.0 mi NW 11.5 mph - N/A   Clear
9:55 AM 81.9 °F 85.0 °F 68.5 °F 64% 29.83 in 10.0 mi NW 13.8 mph 18.4 mph N/A   Clear
10:15 AM 82.2 °F 85.1 °F 68.0 °F 62% 29.83 in 10.0 mi NW 13.8 mph - N/A   Clear
10:35 AM 83.1 °F 85.9 °F 67.6 °F 59% 29.84 in 10.0 mi NW 13.8 mph 21.9 mph N/A   Clear
10:55 AM 83.5 °F 86.4 °F 67.8 °F 59% 29.85 in 10.0 mi NW 12.7 mph - N/A   Clear
11:15 AM 84.2 °F 86.8 °F 66.7 °F 56% 29.85 in 10.0 mi NW 15.0 mph 18.4 mph N/A   Clear
11:35 AM 84.7 °F 87.4 °F 66.7 °F 55% 29.86 in 10.0 mi WNW 15.0 mph - N/A   Clear
11:55 AM 85.1 °F 88.2 °F 68.0 °F 56% 29.86 in 10.0 mi NW 13.8 mph - N/A   Clear
12:15 PM 85.5 °F 87.9 °F 66.4 °F 53% 29.86 in 10.0 mi NW 10.4 mph 17.3 mph N/A   Clear
12:35 PM 86.0 °F 87.9 °F 65.3 °F 50% 29.87 in 10.0 mi WNW 17.3 mph 21.9 mph N/A   Clear
12:55 PM 86.7 °F 88.4 °F 64.6 °F 48% 29.87 in 10.0 mi WNW 13.8 mph 18.4 mph N/A   Clear
1:15 PM 86.9 °F 87.8 °F 63.3 °F 45% 29.87 in 10.0 mi NW 13.8 mph 19.6 mph N/A   Clear
1:35 PM 88.0 °F 89.6 °F 64.8 °F 46% 29.87 in 10.0 mi NW 12.7 mph 17.3 mph N/A   Clear
1:55 PM 88.0 °F 89.0 °F 63.9 °F 44% 29.87 in 10.0 mi WNW 12.7 mph 17.3 mph N/A   Clear
2:15 PM 88.7 °F 88.8 °F 61.7 °F 40% 29.87 in 10.0 mi NW 13.8 mph - N/A   Clear
2:35 PM 89.4 °F 91.5 °F 65.3 °F 45% 29.86 in 10.0 mi NW 9.2 mph - N/A   Clear
2:55 PM 88.2 °F 89.6 °F 64.6 °F 45% 29.86 in 10.0 mi NW 9.2 mph - N/A   Clear
3:15 PM 89.6 °F 90.1 °F 62.1 °F 40% 29.86 in 10.0 mi NW 9.2 mph - N/A   Clear
3:35 PM 90.0 °F 91.0 °F 63.1 °F 41% 29.86 in 10.0 mi WNW 10.4 mph - N/A   Clear
3:55 PM 89.1 °F 89.0 °F 61.2 °F 39% 29.86 in 10.0 mi NW 8.1 mph - N/A   Clear
4:15 PM 89.6 °F 88.9 °F 59.4 °F 36% 29.86 in 10.0 mi NW 9.2 mph - N/A   Clear
4:35 PM 90.0 °F 89.7 °F 60.6 °F 37% 29.86 in 10.0 mi NW 8.1 mph - N/A   Clear
4:55 PM 89.4 °F 89.5 °F 61.7 °F 39% 29.86 in 10.0 mi NW 6.9 mph - N/A   Clear
5:15 PM 89.6 °F 89.8 °F 61.3 °F 39% 29.85 in 10.0 mi NW 6.9 mph - N/A   Clear
5:35 PM 89.1 °F 89.3 °F 61.5 °F 40% 29.85 in 10.0 mi WNW 5.8 mph - N/A   Clear
5:55 PM 88.9 °F 89.4 °F 62.1 °F 41% 29.86 in 10.0 mi NW 4.6 mph - N/A   Clear
6:15 PM 89.4 °F 89.2 °F 60.6 °F 38% 29.86 in 10.0 mi NW 5.8 mph - N/A   Clear
6:35 PM 88.7 °F 90.1 °F 64.0 °F 44% 29.86 in 10.0 mi NW 4.6 mph - N/A   Clear
6:55 PM 87.6 °F 90.1 °F 66.6 °F 49% 29.86 in 10.0 mi NW 3.5 mph - N/A   Clear
7:15 PM 87.4 °F 89.8 °F 66.2 °F 49% 29.87 in 10.0 mi WNW 3.5 mph - N/A   Clear
7:35 PM 85.8 °F 89.1 °F 67.8 °F 55% 29.87 in 10.0 mi NW 3.5 mph - N/A   Clear
7:55 PM 85.3 °F 88.5 °F 67.8 °F 56% 29.87 in 10.0 mi WNW 3.5 mph - N/A   Clear
8:15 PM 84.4 °F 87.3 °F 67.6 °F 57% 29.87 in 10.0 mi Calm Calm - N/A   Clear
8:35 PM 82.9 °F 86.3 °F 68.7 °F 62% 29.87 in 10.0 mi Calm Calm - N/A   Clear
8:55 PM 80.8 °F 83.5 °F 68.2 °F 65% 29.87 in 10.0 mi West 4.6 mph - N/A   Clear
9:15 PM 78.8 °F - 67.3 °F 68% 29.87 in 10.0 mi West 3.5 mph - N/A   Clear
9:35 PM 78.8 °F - 65.8 °F 64% 29.87 in 10.0 mi Calm Calm - N/A   Clear
9:55 PM 78.8 °F - 64.4 °F 61% 29.88 in 10.0 mi Calm Calm - N/A   Clear
10:15 PM 78.8 °F - 63.9 °F 60% 29.89 in 10.0 mi Calm Calm - N/A   Clear
10:35 PM 79.2 °F - 63.0 °F 57% 29.90 in 10.0 mi Calm Calm - N/A   Clear
10:55 PM 80.6 °F 81.5 °F 61.0 °F 51% 29.90 in 10.0 mi Calm Calm - N/A   Clear
11:15 PM 80.6 °F 81.4 °F 60.4 °F 50% 29.90 in 10.0 mi Calm Calm - N/A   Clear
11:35 PM 79.5 °F - 60.6 °F 52% 29.91 in 10.0 mi Calm Calm - N/A   Clear
11:55 PM 77.9 °F - 60.8 °F 56% 29.91 in 10.0 mi Calm Calm - N/A   Clear